^^
Garrymore Weather Station Historical Data
 
Daily Summary for June 17, 2019 Units:  Metric    English   Both
Daily Weekly Monthly Yearly Custom
  Current: High: Low: Average:
Temperature: 17 °C 19 °C 8 °C 13.2 °C
Dew Point: -15 °C 8 °C -15 °C 5.8 °C
Humidity: 10% 89% 10% 65%
Wind Speed: 93km/h 93km/h 2km/h 15km/h
Wind Gust: 93km/h 93km/h - -
WindW - - SSW
Pressure: 1015.81 hPa 1015.81 hPa 1011.92 hPa -
Precipitation: 0 mm      
Historical Graphs
 
 
Tabular Data for June 17, 2019
Time Temperature Dew Point Pressure Wind Wind Speed Wind Gust Humidity Rainfall Rate (Hourly) solar
00:00 10 °C 7 °C 1012.19 hPa S 5 km/h 14 km/h 80% 0 mm 0 W/m2
00:05 10 °C 7 °C 1012.09 hPa S 8 km/h 11 km/h 81% 0 mm 0 W/m2
00:10 10 °C 7 °C 1012.09 hPa SSW 5 km/h 11 km/h 81% 0 mm 0 W/m2
00:15 10 °C 7 °C 1012.19 hPa SSW 5 km/h 8 km/h 81% 0 mm 0 W/m2
00:20 9 °C 7 °C 1011.92 hPa SSW 2 km/h 8 km/h 82% 0 mm 0 W/m2
00:25 9 °C 7 °C 1012.09 hPa SSW 2 km/h 8 km/h 82% 0 mm 0 W/m2
00:30 9 °C 7 °C 1012.19 hPa SSW 8 km/h 11 km/h 82% 0 mm 0 W/m2
00:35 9 °C 7 °C 1012.29 hPa S 5 km/h 11 km/h 83% 0 mm 0 W/m2
00:40 9 °C 7 °C 1012.23 hPa SSW 8 km/h 13 km/h 83% 0 mm 0 W/m2
00:45 9 °C 7 °C 1012.33 hPa SSW 5 km/h 11 km/h 83% 0 mm 0 W/m2
00:50 9 °C 7 °C 1012.29 hPa S 8 km/h 11 km/h 83% 0 mm 0 W/m2
00:55 9 °C 7 °C 1012.39 hPa SSW 5 km/h 13 km/h 83% 0 mm 0 W/m2
01:00 9 °C 7 °C 1012.6 hPa SSW 5 km/h 11 km/h 83% 0 mm 0 W/m2
01:05 9 °C 7 °C 1012.5 hPa SSW 8 km/h 11 km/h 83% 0 mm 0 W/m2
01:10 9 °C 7 °C 1012.29 hPa SW 8 km/h 11 km/h 82% 0 mm 0 W/m2
01:15 9 °C 7 °C 1012.5 hPa SSW 8 km/h 13 km/h 82% 0 mm 0 W/m2
01:20 9 °C 7 °C 1012.5 hPa S 5 km/h 13 km/h 82% 0 mm 0 W/m2
01:25 9 °C 7 °C 1012.6 hPa S 3 km/h 8 km/h 82% 0 mm 0 W/m2
01:30 9 °C 7 °C 1012.6 hPa SSW 8 km/h 11 km/h 82% 0 mm 0 W/m2
01:35 9 °C 6 °C 1012.6 hPa S 8 km/h 19 km/h 82% 0 mm 0 W/m2
01:40 9 °C 6 °C 1012.5 hPa S 8 km/h 11 km/h 82% 0 mm 0 W/m2
01:45 9 °C 6 °C 1012.7 hPa S 10 km/h 13 km/h 82% 0 mm 0 W/m2
01:50 9 °C 6 °C 1012.7 hPa S 5 km/h 14 km/h 82% 0 mm 0 W/m2
01:55 9 °C 6 °C 1012.6 hPa S 8 km/h 10 km/h 83% 0 mm 0 W/m2
02:00 9 °C 6 °C 1012.8 hPa S 8 km/h 11 km/h 84% 0 mm 0 W/m2
02:05 9 °C 6 °C 1012.7 hPa SSW 5 km/h 11 km/h 84% 0 mm 0 W/m2
02:10 9 °C 6 °C 1012.6 hPa SSW 5 km/h 10 km/h 84% 0 mm 0 W/m2
02:15 9 °C 6 °C 1012.5 hPa SSW 11 km/h 14 km/h 84% 0 mm 0 W/m2
02:20 9 °C 6 °C 1012.6 hPa S 13 km/h 16 km/h 84% 0 mm 0 W/m2
02:25 9 °C 6 °C 1012.6 hPa S 11 km/h 18 km/h 85% 0 mm 0 W/m2
02:30 9 °C 6 °C 1012.6 hPa S 11 km/h 19 km/h 85% 0 mm 0 W/m2
02:35 9 °C 6 °C 1012.7 hPa S 14 km/h 19 km/h 85% 0 mm 0 W/m2
02:40 9 °C 6 °C 1012.7 hPa S 11 km/h 19 km/h 85% 0 mm 0 W/m2
02:45 8 °C 6 °C 1012.5 hPa S 10 km/h 18 km/h 85% 0 mm 0 W/m2
02:50 8 °C 6 °C 1012.6 hPa S 11 km/h 18 km/h 85% 0 mm 0 W/m2
02:55 8 °C 6 °C 1012.77 hPa S 11 km/h 16 km/h 85% 0 mm 0 W/m2
03:00 8 °C 6 °C 1012.6 hPa SSE 13 km/h 19 km/h 85% 0 mm 0 W/m2
03:05 8 °C 6 °C 1012.6 hPa SSE 10 km/h 19 km/h 85% 0 mm 0 W/m2
03:10 8 °C 6 °C 1012.6 hPa SE 10 km/h 18 km/h 86% 0 mm 0 W/m2
03:15 8 °C 6 °C 1012.6 hPa S 11 km/h 16 km/h 86% 0 mm 0 W/m2
03:20 8 °C 6 °C 1012.53 hPa SSW 10 km/h 19 km/h 86% 0 mm 0 W/m2
03:25 8 °C 6 °C 1012.5 hPa S 11 km/h 18 km/h 86% 0 mm 0 W/m2
03:30 8 °C 7 °C 1012.53 hPa S 13 km/h 21 km/h 87% 0 mm 0 W/m2
03:40 8 °C 7 °C 1012.8 hPa S 16 km/h 19 km/h 87% 0 mm 0 W/m2
03:45 8 °C 7 °C 1012.7 hPa S 10 km/h 19 km/h 87% 0 mm 0 W/m2
03:50 8 °C 7 °C 1012.9 hPa S 11 km/h 19 km/h 87% 0 mm 0 W/m2
03:55 8 °C 7 °C 1012.8 hPa S 11 km/h 19 km/h 88% 0 mm 0 W/m2
04:00 8 °C 7 °C 1012.7 hPa SSW 8 km/h 14 km/h 88% 0 mm 0 W/m2
04:05 8 °C 7 °C 1012.7 hPa SSW 10 km/h 18 km/h 88% 0 mm 0 W/m2
04:10 8 °C 7 °C 1012.7 hPa S 8 km/h 18 km/h 88% 0 mm 0 W/m2
04:15 8 °C 7 °C 1012.6 hPa S 11 km/h 21 km/h 88% 0 mm 0 W/m2
04:20 8 °C 7 °C 1012.7 hPa S 11 km/h 21 km/h 88% 0 mm 0 W/m2
04:25 9 °C 7 °C 1012.8 hPa S 8 km/h 14 km/h 89% 0 mm 0 W/m2
04:30 9 °C 7 °C 1012.7 hPa S 13 km/h 18 km/h 89% 0 mm 0 W/m2
04:35 9 °C 7 °C 1012.7 hPa S 5 km/h 16 km/h 89% 0 mm 0 W/m2
04:40 9 °C 7 °C 1012.9 hPa S 10 km/h 21 km/h 88% 0 mm 0 W/m2
04:45 9 °C 7 °C 1012.7 hPa S 14 km/h 23 km/h 88% 0 mm 0 W/m2
04:50 9 °C 7 °C 1012.9 hPa SSW 11 km/h 19 km/h 88% 0 mm 0 W/m2
04:55 9 °C 7 °C 1012.8 hPa SSW 13 km/h 23 km/h 88% 0 mm 0 W/m2
05:00 9 °C 7 °C 1012.9 hPa S 13 km/h 23 km/h 88% 0 mm 0 W/m2
05:05 9 °C 7 °C 1012.8 hPa S 14 km/h 21 km/h 88% 0 mm 0 W/m2
05:10 9 °C 7 °C 1012.6 hPa S 11 km/h 21 km/h 88% 0 mm 0 W/m2
05:15 9 °C 7 °C 1012.6 hPa S 14 km/h 26 km/h 88% 0 mm 0 W/m2
05:20 9 °C 7 °C 1012.8 hPa S 14 km/h 23 km/h 88% 0 mm 0 W/m2
05:25 9 °C 7 °C 1012.8 hPa S 11 km/h 23 km/h 87% 0 mm 0 W/m2
05:30 9 °C 7 °C 1012.7 hPa S 10 km/h 18 km/h 87% 0 mm 0 W/m2
05:35 9 °C 7 °C 1012.7 hPa S 13 km/h 18 km/h 87% 0 mm 0 W/m2
05:40 9 °C 7 °C 1012.6 hPa SSW 11 km/h 19 km/h 87% 0 mm 0 W/m2
05:45 9 °C 7 °C 1012.8 hPa S 14 km/h 21 km/h 87% 0 mm 0 W/m2
05:50 9 °C 7 °C 1013 hPa S 16 km/h 21 km/h 87% 0 mm 0 W/m2
05:55 9 °C 7 °C 1012.8 hPa S 10 km/h 21 km/h 87% 0 mm 0 W/m2
06:00 9 °C 7 °C 1013.07 hPa S 13 km/h 19 km/h 87% 0 mm 0 W/m2
06:05 9 °C 7 °C 1012.9 hPa S 10 km/h 18 km/h 87% 0 mm 0 W/m2
06:10 9 °C 7 °C 1012.8 hPa S 10 km/h 14 km/h 87% 0 mm 0 W/m2
06:15 9 °C 7 °C 1012.9 hPa S 10 km/h 16 km/h 87% 0 mm 0 W/m2
06:20 9 °C 7 °C 1012.9 hPa S 10 km/h 16 km/h 87% 0 mm 0 W/m2
06:25 9 °C 7 °C 1012.9 hPa S 10 km/h 14 km/h 87% 0 mm 0 W/m2
06:30 9 °C 7 °C 1012.9 hPa S 11 km/h 16 km/h 87% 0 mm 0 W/m2
06:35 9 °C 7 °C 1013.07 hPa S 10 km/h 18 km/h 86% 0 mm 0 W/m2
06:40 9 °C 7 °C 1013.11 hPa SSW 10 km/h 19 km/h 86% 0 mm 0 W/m2
06:45 9 °C 7 °C 1013 hPa SSW 11 km/h 19 km/h 86% 0 mm 0 W/m2
06:50 9 °C 7 °C 1013.11 hPa S 11 km/h 19 km/h 86% 0 mm 0 W/m2
06:55 10 °C 7 °C 1013.11 hPa S 11 km/h 23 km/h 85% 0 mm 0 W/m2
07:00 10 °C 7 °C 1013.17 hPa SSW 13 km/h 21 km/h 85% 0 mm 0 W/m2
07:05 10 °C 7 °C 1013.28 hPa S 11 km/h 21 km/h 84% 0 mm 0 W/m2
07:10 10 °C 7 °C 1013 hPa S 14 km/h 23 km/h 84% 0 mm 0 W/m2
07:15 10 °C 7 °C 1013.21 hPa S 23 km/h 27 km/h 83% 0 mm 0 W/m2
07:20 10 °C 7 °C 1013.11 hPa S 13 km/h 27 km/h 83% 0 mm 0 W/m2
07:25 10 °C 7 °C 1013.21 hPa S 13 km/h 24 km/h 83% 0 mm 0 W/m2
07:30 10 °C 7 °C 1013.11 hPa S 11 km/h 23 km/h 83% 0 mm 0 W/m2
07:35 10 °C 7 °C 1013.21 hPa S 14 km/h 23 km/h 83% 0 mm 0 W/m2
07:40 11 °C 8 °C 1013.21 hPa S 16 km/h 23 km/h 83% 0 mm 0 W/m2
07:45 11 °C 8 °C 1013.21 hPa S 11 km/h 23 km/h 82% 0 mm 0 W/m2
07:50 11 °C 8 °C 1013.11 hPa S 19 km/h 23 km/h 81% 0 mm 0 W/m2
07:55 11 °C 8 °C 1013.11 hPa S 11 km/h 23 km/h 80% 0 mm 0 W/m2
08:00 11 °C 8 °C 1013.21 hPa S 10 km/h 23 km/h 80% 0 mm 0 W/m2
08:05 11 °C 8 °C 1013.41 hPa S 10 km/h 23 km/h 80% 0 mm 0 W/m2
08:10 11 °C 8 °C 1013.41 hPa SSW 14 km/h 23 km/h 79% 0 mm 0 W/m2
08:15 11 °C 8 °C 1013.31 hPa SSW 10 km/h 23 km/h 79% 0 mm 0 W/m2
08:20 11 °C 8 °C 1013.31 hPa S 14 km/h 19 km/h 79% 0 mm 0 W/m2
08:25 12 °C 8 °C 1013.41 hPa SSE 8 km/h 21 km/h 79% 0 mm 0 W/m2
08:30 12 °C 8 °C 1013.31 hPa S 11 km/h 19 km/h 79% 0 mm 0 W/m2
08:35 12 °C 8 °C 1013.31 hPa S 14 km/h 21 km/h 77% 0 mm 0 W/m2
08:40 13 °C 8 °C 1013.41 hPa S 16 km/h 26 km/h 77% 0 mm 0 W/m2
08:45 13 °C 8 °C 1013.38 hPa S 10 km/h 23 km/h 75% 0 mm 0 W/m2
08:50 13 °C 8 °C 1013.78 hPa S 19 km/h 26 km/h 74% 0 mm 0 W/m2
08:55 13 °C 8 °C 1013.51 hPa S 19 km/h 26 km/h 73% 0 mm 0 W/m2
09:00 13 °C 8 °C 1013.51 hPa S 13 km/h 26 km/h 74% 0 mm 0 W/m2
09:05 13 °C 8 °C 1013.58 hPa S 13 km/h 19 km/h 74% 0 mm 0 W/m2
09:10 13 °C 8 °C 1013.58 hPa S 13 km/h 19 km/h 74% 0 mm 0 W/m2
09:15 13 °C 8 °C 1013.48 hPa SSW 16 km/h 31 km/h 72% 0 mm 0 W/m2
09:20 13 °C 8 °C 1013.51 hPa SSW 14 km/h 24 km/h 72% 0 mm 0 W/m2
09:25 13 °C 8 °C 1013.48 hPa SSW 13 km/h 24 km/h 71% 0 mm 0 W/m2
09:30 13 °C 8 °C 1013.51 hPa SSW 19 km/h 27 km/h 71% 0 mm 0 W/m2
09:35 13 °C 8 °C 1013.41 hPa S 11 km/h 27 km/h 71% 0 mm 0 W/m2
09:40 13 °C 8 °C 1013.31 hPa S 11 km/h 23 km/h 71% 0 mm 0 W/m2
09:45 13 °C 8 °C 1013.31 hPa SSW 11 km/h 23 km/h 71% 0 mm 0 W/m2
09:50 13 °C 8 °C 1013.41 hPa SSW 14 km/h 27 km/h 69% 0 mm 0 W/m2
09:55 13 °C 8 °C 1013.51 hPa S 11 km/h 24 km/h 69% 0 mm 0 W/m2
10:00 14 °C 8 °C 1013.31 hPa S 13 km/h 23 km/h 68% 0 mm 0 W/m2
10:05 14 °C 8 °C 1013.48 hPa SSW 13 km/h 19 km/h 66% 0 mm 0 W/m2
10:10 14 °C 8 °C 1013.51 hPa SSW 14 km/h 21 km/h 67% 0 mm 0 W/m2
10:20 13 °C 7 °C 1013.68 hPa SSW 13 km/h 26 km/h 66% 0 mm 0 W/m2
10:25 14 °C 8 °C 1013.68 hPa SSW 14 km/h 24 km/h 66% 0 mm 0 W/m2
10:30 14 °C 8 °C 1013.68 hPa SSW 16 km/h 27 km/h 65% 0 mm 0 W/m2
10:35 14 °C 7 °C 1013.78 hPa SSW 13 km/h 26 km/h 63% 0 mm 0 W/m2
10:40 14 °C 7 °C 1013.68 hPa S 19 km/h 24 km/h 62% 0 mm 0 W/m2
10:45 15 °C 7 °C 1013.88 hPa S 23 km/h 34 km/h 60% 0 mm 0 W/m2
10:50 14 °C 7 °C 1013.72 hPa SSW 19 km/h 29 km/h 60% 0 mm 0 W/m2
10:55 14 °C 7 °C 1013.72 hPa SSW 23 km/h 27 km/h 61% 0 mm 0 W/m2
11:00 15 °C 7 °C 1013.61 hPa SSW 19 km/h 27 km/h 60% 0 mm 0 W/m2
11:05 14 °C 7 °C 1013.72 hPa SW 19 km/h 24 km/h 60% 0 mm 0 W/m2
11:10 14 °C 7 °C 1013.72 hPa SW 11 km/h 24 km/h 60% 0 mm 0 W/m2
11:15 15 °C 7 °C 1013.61 hPa SSW 10 km/h 24 km/h 60% 0 mm 0 W/m2
11:20 15 °C 7 °C 1013.61 hPa SW 11 km/h 21 km/h 60% 0 mm 0 W/m2
11:25 16 °C 7 °C 1013.61 hPa SW 16 km/h 24 km/h 59% 0 mm 0 W/m2
11:30 16 °C 7 °C 1013.82 hPa SSW 11 km/h 24 km/h 56% 0 mm 0 W/m2
11:35 16 °C 6 °C 1013.82 hPa S 14 km/h 34 km/h 54% 0 mm 0 W/m2
11:40 16 °C 6 °C 1013.82 hPa S 14 km/h 34 km/h 54% 0 mm 0 W/m2
11:45 15 °C 6 °C 1014.09 hPa SSW 14 km/h 31 km/h 56% 0 mm 0 W/m2
11:50 14 °C 7 °C 1013.82 hPa SSW 11 km/h 27 km/h 60% 0 mm 0 W/m2
11:55 15 °C 7 °C 1013.99 hPa SSW 16 km/h 29 km/h 59% 0 mm 0 W/m2
12:00 15 °C 7 °C 1013.99 hPa SSW 19 km/h 29 km/h 59% 0 mm 0 W/m2
12:05 15 °C 7 °C 1013.92 hPa SSW 10 km/h 26 km/h 58% 0 mm 0 W/m2
12:10 14 °C 7 °C 1014.12 hPa SSW 5 km/h 16 km/h 61% 0 mm 0 W/m2
12:15 14 °C 7 °C 1014.02 hPa SW 3 km/h 11 km/h 62% 0 mm 0 W/m2
12:25 14 °C 7 °C 1014.09 hPa SW 8 km/h 19 km/h 64% 0 mm 0 W/m2
12:35 14 °C 6 °C 1014.39 hPa W 13 km/h 23 km/h 60% 0 mm 0 W/m2
12:40 14 °C 7 °C 1014.29 hPa SW 11 km/h 24 km/h 62% 0 mm 0 W/m2
12:45 14 °C 7 °C 1014.39 hPa SSW 14 km/h 24 km/h 63% 0 mm 0 W/m2
12:50 13 °C 7 °C 1014.29 hPa SSW 13 km/h 24 km/h 64% 0 mm 0 W/m2
12:55 13 °C 7 °C 1014.29 hPa SSW 11 km/h 19 km/h 65% 0 mm 0 W/m2
13:00 14 °C 7 °C 1014.32 hPa SSW 11 km/h 18 km/h 65% 0 mm 0 W/m2
13:05 14 °C 8 °C 1014.19 hPa S 11 km/h 21 km/h 66% 0 mm 0 W/m2
13:10 15 °C 8 °C 1014.09 hPa S 14 km/h 23 km/h 65% 0 mm 0 W/m2
13:15 16 °C 8 °C 1014.29 hPa SSW 13 km/h 31 km/h 62% 0 mm 0 W/m2
13:20 16 °C 8 °C 1014.29 hPa SSW 13 km/h 21 km/h 61% 0 mm 0 W/m2
13:25 15 °C 7 °C 1014.39 hPa SSW 14 km/h 24 km/h 60% 0 mm 0 W/m2
13:30 15 °C 7 °C 1014.49 hPa SSW 13 km/h 26 km/h 60% 0 mm 0 W/m2
13:35 15 °C 7 °C 1014.53 hPa SSW 13 km/h 26 km/h 59% 0 mm 0 W/m2
13:40 15 °C 7 °C 1014.39 hPa S 11 km/h 26 km/h 60% 0 mm 0 W/m2
13:45 15 °C 8 °C 1014.49 hPa S 11 km/h 23 km/h 61% 0 mm 0 W/m2
13:50 15 °C 7 °C 1014.6 hPa SSW 8 km/h 24 km/h 60% 0 mm 0 W/m2
13:55 15 °C 8 °C 1014.6 hPa SSW 13 km/h 18 km/h 61% 0 mm 0 W/m2
14:00 15 °C 8 °C 1014.7 hPa SSW 16 km/h 23 km/h 60% 0 mm 0 W/m2
14:05 16 °C 8 °C 1014.49 hPa S 11 km/h 24 km/h 59% 0 mm 0 W/m2
14:10 16 °C 8 °C 1014.39 hPa SSW 10 km/h 24 km/h 58% 0 mm 0 W/m2
14:15 17 °C 7 °C 1014.32 hPa SW 19 km/h 27 km/h 54% 0 mm 0 W/m2
14:20 16 °C 6 °C 1014.49 hPa SW 14 km/h 34 km/h 51% 0 mm 0 W/m2
14:25 16 °C 6 °C 1014.19 hPa SSW 16 km/h 31 km/h 52% 0 mm 0 W/m2
14:30 16 °C 6 °C 1014.39 hPa SW 13 km/h 29 km/h 51% 0 mm 0 W/m2
14:35 16 °C 6 °C 1014.43 hPa SW 13 km/h 26 km/h 52% 0 mm 0 W/m2
14:40 16 °C 6 °C 1014.39 hPa SSW 11 km/h 26 km/h 53% 0 mm 0 W/m2
14:45 16 °C 6 °C 1014.6 hPa SW 14 km/h 35 km/h 52% 0 mm 0 W/m2
14:50 17 °C 7 °C 1014.29 hPa SW 13 km/h 26 km/h 52% 0 mm 0 W/m2
14:55 17 °C 7 °C 1014.39 hPa SSW 19 km/h 34 km/h 52% 0 mm 0 W/m2
15:00 17 °C 7 °C 1014.49 hPa SSW 14 km/h 29 km/h 53% 0 mm 0 W/m2
15:05 17 °C 7 °C 1014.39 hPa S 23 km/h 27 km/h 52% 0 mm 0 W/m2
15:10 16 °C 6 °C 1014.49 hPa S 14 km/h 27 km/h 50% 0 mm 0 W/m2
15:15 16 °C 6 °C 1014.7 hPa S 14 km/h 26 km/h 51% 0 mm 0 W/m2
15:20 16 °C 6 °C 1014.7 hPa S 24 km/h 32 km/h 51% 0 mm 0 W/m2
15:25 16 °C 6 °C 1014.6 hPa SSW 10 km/h 32 km/h 52% 0 mm 0 W/m2
15:30 16 °C 6 °C 1014.49 hPa SSW 10 km/h 19 km/h 53% 0 mm 0 W/m2
15:35 16 °C 7 °C 1014.49 hPa SSW 16 km/h 23 km/h 54% 0 mm 0 W/m2
15:40 17 °C 7 °C 1014.49 hPa S 11 km/h 23 km/h 52% 0 mm 0 W/m2
15:45 16 °C 6 °C 1014.6 hPa SSW 8 km/h 19 km/h 51% 0 mm 0 W/m2
15:50 16 °C 7 °C 1014.49 hPa SW 5 km/h 13 km/h 53% 0 mm 0 W/m2
15:55 16 °C 7 °C 1014.49 hPa SW 5 km/h 13 km/h 53% 0 mm 0 W/m2
16:00 16 °C 7 °C 1014.6 hPa WSW 5 km/h 11 km/h 53% 0 mm 0 W/m2
16:05 16 °C 7 °C 1014.49 hPa W 8 km/h 11 km/h 53% 0 mm 0 W/m2
16:10 16 °C 7 °C 1014.43 hPa WNW 5 km/h 13 km/h 54% 0 mm 0 W/m2
16:15 16 °C 7 °C 1014.49 hPa W 8 km/h 13 km/h 53% 0 mm 0 W/m2
16:20 16 °C 7 °C 1014.7 hPa SW 5 km/h 19 km/h 54% 0 mm 0 W/m2
16:25 16 °C 7 °C 1014.6 hPa SSW 8 km/h 19 km/h 54% 0 mm 0 W/m2
16:30 16 °C 7 °C 1014.6 hPa SSW 8 km/h 16 km/h 55% 0 mm 0 W/m2
16:35 16 °C 7 °C 1014.7 hPa SW 5 km/h 21 km/h 54% 0 mm 0 W/m2
16:40 16 °C 7 °C 1014.8 hPa SSW 8 km/h 19 km/h 55% 0 mm 0 W/m2
16:45 16 °C 7 °C 1014.53 hPa W 8 km/h 19 km/h 53% 0 mm 0 W/m2
16:50 16 °C 7 °C 1014.7 hPa W 8 km/h 13 km/h 53% 0 mm 0 W/m2
16:55 17 °C 7 °C 1014.8 hPa S 8 km/h 13 km/h 54% 0 mm 0 W/m2
17:00 17 °C 7 °C 1014.7 hPa SSW 10 km/h 18 km/h 53% 0 mm 0 W/m2
17:05 17 °C 7 °C 1014.8 hPa WNW 10 km/h 18 km/h 53% 0 mm 0 W/m2
17:10 17 °C 7 °C 1014.7 hPa NW 8 km/h 18 km/h 52% 0 mm 0 W/m2
17:15 17 °C 7 °C 1014.53 hPa WNW 5 km/h 19 km/h 53% 0 mm 0 W/m2
17:20 17 °C 7 °C 1014.6 hPa SW 10 km/h 14 km/h 52% 0 mm 0 W/m2
17:25 17 °C 7 °C 1014.49 hPa S 5 km/h 18 km/h 52% 0 mm 0 W/m2
17:30 18 °C 8 °C 1014.6 hPa SW 5 km/h 14 km/h 52% 0 mm 0 W/m2
17:35 18 °C 8 °C 1014.53 hPa WSW 5 km/h 13 km/h 52% 0 mm 0 W/m2
17:40 18 °C 8 °C 1014.7 hPa SW 5 km/h 11 km/h 51% 0 mm 0 W/m2
17:45 18 °C 8 °C 1014.6 hPa SSW 3 km/h 13 km/h 51% 0 mm 0 W/m2
17:50 18 °C 8 °C 1014.8 hPa WNW 11 km/h 21 km/h 51% 0 mm 0 W/m2
17:55 18 °C 8 °C 1014.6 hPa NW 10 km/h 21 km/h 51% 0 mm 0 W/m2
18:00 18 °C 8 °C 1014.7 hPa SW 8 km/h 18 km/h 51% 0 mm 0 W/m2
18:05 18 °C 8 °C 1014.7 hPa SW 10 km/h 24 km/h 51% 0 mm 0 W/m2
18:10 19 °C 7 °C 1014.7 hPa W 10 km/h 24 km/h 48% 0 mm 0 W/m2
18:15 19 °C 7 °C 1014.9 hPa W 5 km/h 14 km/h 48% 0 mm 0 W/m2
18:20 19 °C 7 °C 1014.7 hPa WSW 5 km/h 18 km/h 47% 0 mm 0 W/m2
18:25 18 °C 7 °C 1014.8 hPa WNW 5 km/h 19 km/h 47% 0 mm 0 W/m2
18:30 19 °C 8 °C 1014.8 hPa WNW 5 km/h 11 km/h 50% 0 mm 0 W/m2
18:35 19 °C 8 °C 1014.7 hPa WSW 5 km/h 18 km/h 49% 0 mm 0 W/m2
18:40 19 °C 8 °C 1014.8 hPa SW 5 km/h 10 km/h 48% 0 mm 0 W/m2
18:45 19 °C 8 °C 1014.7 hPa SSW 5 km/h 11 km/h 49% 0 mm 0 W/m2
18:50 18 °C 7 °C 1014.53 hPa WSW 3 km/h 11 km/h 47% 0 mm 0 W/m2
18:55 18 °C 7 °C 1014.7 hPa NW 5 km/h 8 km/h 47% 0 mm 0 W/m2
19:00 18 °C 7 °C 1014.8 hPa NW 3 km/h 11 km/h 51% 0 mm 0 W/m2
19:05 18 °C 7 °C 1014.8 hPa NW 3 km/h 8 km/h 51% 0 mm 0 W/m2
19:10 18 °C 7 °C 1014.7 hPa NW 5 km/h 11 km/h 48% 0 mm 0 W/m2
19:15 18 °C 6 °C 1014.49 hPa W 5 km/h 11 km/h 47% 0 mm 0 W/m2
19:20 17 °C 7 °C 1014.8 hPa WSW 5 km/h 13 km/h 49% 0 mm 0 W/m2
19:25 17 °C 7 °C 1015 hPa SW 8 km/h 13 km/h 50% 0 mm 0 W/m2
19:30 17 °C 7 °C 1014.9 hPa W 5 km/h 14 km/h 49% 0 mm 0 W/m2
19:35 17 °C 7 °C 1014.8 hPa W 8 km/h 13 km/h 52% 0 mm 0 W/m2
19:40 17 °C 7 °C 1014.7 hPa SSW 5 km/h 11 km/h 51% 0 mm 0 W/m2
19:45 17 °C 7 °C 1014.8 hPa SSW 3 km/h 14 km/h 51% 0 mm 0 W/m2
19:50 17 °C 7 °C 1015 hPa SSW 5 km/h 11 km/h 52% 0 mm 0 W/m2
19:55 18 °C 7 °C 1014.9 hPa SSW 5 km/h 11 km/h 50% 0 mm 0 W/m2
20:00 18 °C 7 °C 1014.9 hPa W 5 km/h 10 km/h 50% 0 mm 0 W/m2
20:05 17 °C 7 °C 1015.1 hPa W 5 km/h 10 km/h 49% 0 mm 0 W/m2
20:10 17 °C 7 °C 1015 hPa SSW 3 km/h 11 km/h 50% 0 mm 0 W/m2
20:15 17 °C 7 °C 1015.1 hPa SSW 3 km/h 8 km/h 52% 0 mm 0 W/m2
20:20 17 °C 7 °C 1015.21 hPa SW 2 km/h 8 km/h 51% 0 mm 0 W/m2
20:25 17 °C 7 °C 1015.31 hPa SSW 2 km/h 8 km/h 51% 0 mm 0 W/m2
20:30 17 °C 7 °C 1015.1 hPa S 3 km/h 10 km/h 53% 0 mm 0 W/m2
20:35 17 °C 7 °C 1015.21 hPa W 3 km/h 10 km/h 53% 0 mm 0 W/m2
20:40 17 °C -4 °C 1015.31 hPa W 66 km/h 93 km/h 23% 0 mm 0 W/m2
20:45 17 °C -15 °C 1015.31 hPa W 93 km/h 93 km/h 10% 0 mm 0 W/m2
20:50 17 °C -15 °C 1015.41 hPa W 93 km/h 93 km/h 10% 0 mm 0 W/m2
20:55 17 °C -15 °C 1015.31 hPa W 93 km/h 93 km/h 10% 0 mm 0 W/m2
21:00 17 °C -15 °C 1015.41 hPa W 93 km/h 93 km/h 10% 0 mm 0 W/m2
21:05 17 °C -15 °C 1015.51 hPa W 93 km/h 93 km/h 10% 0 mm 0 W/m2
21:10 17 °C -15 °C 1015.41 hPa W 93 km/h 93 km/h 10% 0 mm 0 W/m2
21:15 17 °C -15 °C 1015.78 hPa W 93 km/h 93 km/h 10% 0 mm 0 W/m2
21:20 17 °C -15 °C 1015.78 hPa W 93 km/h 93 km/h 10% 0 mm 0 W/m2
21:25 17 °C -15 °C 1015.71 hPa W 93 km/h 93 km/h 10% 0 mm 0 W/m2
21:30 17 °C -15 °C 1015.61 hPa W 93 km/h 93 km/h 10% 0 mm 0 W/m2
21:35 17 °C -15 °C 1015.41 hPa W 93 km/h 93 km/h 10% 0 mm 0 W/m2
21:40 17 °C -15 °C 1015.61 hPa W 93 km/h 93 km/h 10% 0 mm 0 W/m2
21:45 17 °C -15 °C 1015.78 hPa W 93 km/h 93 km/h 10% 0 mm 0 W/m2
21:50 17 °C -15 °C 1015.81 hPa W 93 km/h 93 km/h 10% 0 mm 0 W/m2
Garrymore Weather Station, Geashill, Tullamore, Offaly, Ireland
Compliments of Weather Underground - 2.25 mb